Flag for Germany Weather past 2 weeks in Ahlen, North Rhine-Westphalia, Germany

Now
55 °F

Thundershowers. Passing clouds.


Feels Like: 54 °F
Forecast: 48 / 74 °F
Wind: 7 mph from Southeast

Location: Dortmund / Wickede


UV Index: 3 (Moderate)

Visibility: N/A


Pressure: 30.12 "Hg

Humidity: 72%

Dew point: 46 °F

Location of AhlenLocation

Historic Weather in Ahlen

°F

Ahlen temperature yesterday

Maximum temperature yesterday: 68 °F (at 3:20 PM)
Minimum temperature yesterday: 46 °F (at 6:20 AM)
Average temperature yesterday: 59 °F

Past Weeks' High & Low Weather Summary

 TemperatureHumidityPressure
High68 °F (Apr 20, 2:20 PM)94% (Apr 21, 8:20 PM)30.45 "Hg (Apr 21, 8:20 PM)
Low30 °F (Apr 16, 5:20 AM)29% (Apr 17, 3:50 PM)29.65 "Hg (Apr 21, 2:50 PM)
Average52 °F66%30.05 "Hg
* Reported Apr 8 9:20 PM — Apr 23 9:50 PM, Ahlen, Weather by CustomWeather, © 2014

Note: Actual official high and low records may vary slightly from our data, if they occured in-between our weather recording intervals... More about our weather records

Advertising

Historic Weather Conditions — Data for Previous 24 hours

 ConditionsComfort  
Time TempWeatherWind HumidityBarometerVisibility
9:50 PM
Apr 23
55 °FThundershowers. Passing clouds.7 mph72%30.12 "HgN/A
9:20 PM55 °FThundershowers. Scattered clouds.7 mph82%30.12 "HgN/A
8:50 PM57 °FScattered showers. Clear.5 mph82%30.12 "HgN/A
8:20 PM57 °FScattered showers. Clear.3 mph77%30.09 "HgN/A
7:50 PM57 °FScattered showers. Clear.3 mph82%30.09 "HgN/A
7:20 PM59 °FScattered showers. Partly sunny.5 mph72%30.09 "HgN/A
6:50 PM59 °FThundershowers. Scattered clouds.9 mph72%30.09 "HgN/A
6:20 PM64 °FThundershowers. Scattered clouds.14 mph52%30.07 "HgN/A
5:50 PM66 °FPassing clouds.10 mph46%30.07 "HgN/A
5:20 PM64 °FSunny.12 mph52%30.07 "Hg10 mi
4:50 PM66 °FPassing clouds.5 mph49%30.07 "HgN/A
4:20 PM66 °FSunny.5 mph49%30.07 "Hg10 mi
3:50 PM68 °FSunny.2 mph43%30.09 "Hg10 mi
3:20 PM68 °FSunny.5 mph49%30.09 "Hg10 mi
2:50 PM66 °FSunny.5 mph52%30.09 "Hg10 mi
2:20 PM64 °FScattered showers. Clear.2 mph64%30.09 "HgN/A
1:50 PM64 °FScattered showers. Scattered clouds.3 mph56%30.09 "HgN/A
1:20 PM64 °FScattered showers. Clear.5 mph56%30.09 "HgN/A
12:50 PM63 °FSunny.3 mph68%30.09 "Hg10 mi
12:20 PM64 °FSunny.2 mph56%30.09 "Hg10 mi
11:50 AM64 °FSunny.3 mph56%30.12 "Hg10 mi
11:20 AM63 °FSunny.2 mph59%30.12 "Hg10 mi
10:50 AM63 °FSunny.1 mph64%30.09 "Hg10 mi
10:20 AM61 °FSunny.1 mph63%30.09 "Hg10 mi
9:50 AM61 °FSunny.3 mph63%30.09 "Hg10 mi
9:20 AM57 °FSunny.6 mph72%30.09 "Hg10 mi
8:50 AM55 °FSunny.2 mph72%30.09 "Hg10 mi
8:20 AM52 °FPassing clouds.5 mph82%30.09 "HgN/A
7:50 AM50 °FSunny.9 mph82%30.07 "Hg10 mi
7:20 AM50 °FSunny.10 mph82%30.07 "Hg10 mi
6:50 AM48 °FClear.8 mph87%30.07 "Hg10 mi
6:20 AM46 °FClear.8 mph87%30.07 "Hg10 mi
5:50 AM48 °FClear.9 mph87%30.07 "Hg10 mi
5:20 AM48 °FClear.9 mph87%30.07 "Hg10 mi
Weather by CustomWeather, © 2014

See weather overview